Private Wetterstation Wechselburg
Wetterdaten: Sonntag, 06.11.2011
Datum Zeit Temp. +2m Bodentemp. Temp.+5cm Temp. Wind Windchill X Diff Temp. Feuchte +2m Feuchte +5cm Sonnenschein Luftdruck Regen Wind Richtung Richtung Sonnenschein UV Taupunkt Windchill Windben
06.11.2011 00:00 4,8 C 13,7 C 5,0 C 4,5 C 4,0 C 0,0 C 89 % 90 % 0 % 1013,6 hPa 0,0 l/m 0,0 km/h (0 Bft) W-SW 247 0 min 0,0 UV-I 3,1 C 4,0 C 0,0 km/h (0 Bft)
06.11.2011 00:10 4,6 C 13,7 C 4,9 C 4,4 C 3,9 C 0,0 C 89 % 90 % 0 % 1013,6 hPa 0,0 l/m 0,0 km/h (0 Bft) N 0 0 min 0,0 UV-I 2,9 C 3,9 C 0,0 km/h (0 Bft)
06.11.2011 00:20 4,4 C 13,7 C 4,7 C 4,1 C 3,6 C 0,0 C 89 % 90 % 0 % 1014,2 hPa 0,0 l/m 0,0 km/h (0 Bft) S-SW 202 0 min 0,0 UV-I 2,7 C 3,6 C 0,0 km/h (0 Bft)
06.11.2011 00:25 4,3 C 13,7 C 4,7 C 4,0 C 3,5 C 0,0 C 89 % 90 % 0 % 1014,2 hPa 0,0 l/m 0,0 km/h (0 Bft) S-SO 157 0 min 0,0 UV-I 2,7 C 3,5 C 0,0 km/h (0 Bft)
06.11.2011 00:30 4,1 C 13,7 C 4,5 C 3,9 C 3,5 C 0,0 C 89 % 90 % 0 % 1014,2 hPa 0,0 l/m 0,0 km/h (0 Bft) SW 225 0 min 0,0 UV-I 2,5 C 3,5 C 0,0 km/h (0 Bft)
06.11.2011 00:35 4,0 C 13,7 C 4,5 C 3,8 C 3,4 C 0,0 C 89 % 90 % 0 % 1014,2 hPa 0,0 l/m 0,0 km/h (0 Bft) S-SW 202 0 min 0,0 UV-I 2,4 C 3,4 C 0,0 km/h (0 Bft)
06.11.2011 00:40 4,0 C 13,7 C 4,4 C 3,8 C 3,3 C 0,0 C 90 % 90 % 0 % 1013,5 hPa 0,0 l/m 0,0 km/h (0 Bft) W-SW 247 0 min 0,0 UV-I 2,5 C 3,3 C 0,0 km/h (0 Bft)
06.11.2011 00:45 4,0 C 13,7 C 4,4 C 3,7 C 3,2 C 0,0 C 90 % 90 % 0 % 1013,5 hPa 0,0 l/m 0,0 km/h (0 Bft) S-SW 202 0 min 0,0 UV-I 2,5 C 3,2 C 0,0 km/h (0 Bft)
06.11.2011 00:50 4,0 C 13,7 C 4,3 C 3,8 C 3,3 C 0,0 C 90 % 90 % 0 % 1013,5 hPa 0,0 l/m 0,0 km/h (0 Bft) O-NO 67 0 min 0,0 UV-I 2,5 C 3,3 C 0,0 km/h (0 Bft)
06.11.2011 00:55 4,0 C 13,7 C 4,3 C 3,8 C 3,5 C 0,0 C 90 % 90 % 0 % 1013,5 hPa 0,0 l/m 0,0 km/h (0 Bft) O-NO 67 0 min 0,0 UV-I 2,5 C 3,5 C 0,0 km/h (0 Bft)
06.11.2011 01:00 3,9 C 13,7 C 4,2 C 3,8 C 3,5 C 0,0 C 90 % 90 % 0 % 1013,5 hPa 0,0 l/m 0,0 km/h (0 Bft) O-NO 67 0 min 0,0 UV-I 2,4 C 3,5 C 0,0 km/h (0 Bft)
06.11.2011 01:10 3,7 C 13,6 C 4,1 C 3,5 C 3,1 C 0,0 C 90 % 91 % 0 % 1013,5 hPa 0,0 l/m 0,0 km/h (0 Bft) N 0 0 min 0,0 UV-I 2,2 C 3,1 C 0,0 km/h (0 Bft)
06.11.2011 01:20 3,5 C 13,7 C 4,0 C 3,3 C 2,8 C 0,0 C 90 % 90 % 0 % 1013,5 hPa 0,0 l/m 0,0 km/h (0 Bft) W-SW 247 0 min 0,0 UV-I 2,0 C 2,8 C 0,0 km/h (0 Bft)
06.11.2011 01:25 3,5 C 13,7 C 4,0 C 3,2 C 2,6 C 0,0 C 90 % 90 % 0 % 1013,5 hPa 0,0 l/m 0,0 km/h (0 Bft) W-SW 247 0 min 0,0 UV-I 2,0 C 2,6 C 0,0 km/h (0 Bft)
06.11.2011 01:30 3,3 C 13,7 C 3,9 C 3,0 C 2,4 C 0,0 C 90 % 90 % 0 % 1013,5 hPa 0,0 l/m 0,0 km/h (0 Bft) W-SW 247 0 min 0,0 UV-I 1,8 C 2,4 C 0,0 km/h (0 Bft)
06.11.2011 01:35 3,2 C 13,7 C 3,8 C 3,0 C 2,5 C 0,0 C 90 % 90 % 0 % 1013,5 hPa 0,0 l/m 0,0 km/h (0 Bft) W-SW 247 0 min 0,0 UV-I 1,7 C 2,5 C 0,0 km/h (0 Bft)
06.11.2011 01:40 3,2 C 13,7 C 3,7 C 3,0 C 2,5 C 0,0 C 90 % 91 % 0 % 1013,7 hPa 0,0 l/m 0,0 km/h (0 Bft) W-SW 247 0 min 0,0 UV-I 1,7 C 2,5 C 0,0 km/h (0 Bft)
06.11.2011 01:45 3,2 C 13,7 C 3,6 C 3,0 C 2,6 C 0,0 C 90 % 91 % 0 % 1013,7 hPa 0,0 l/m 0,0 km/h (0 Bft) O 90 0 min 0,0 UV-I 1,7 C 2,6 C 0,0 km/h (0 Bft)
06.11.2011 01:50 3,2 C 13,7 C 3,6 C 3,0 C 2,5 C 0,0 C 90 % 91 % 0 % 1013,7 hPa 0,0 l/m 0,0 km/h (0 Bft) W-SW 247 0 min 0,0 UV-I 1,7 C 2,5 C 0,0 km/h (0 Bft)
06.11.2011 01:55 3,1 C 13,7 C 3,6 C 2,9 C 2,4 C 0,0 C 90 % 91 % 0 % 1013,7 hPa 0,0 l/m 0,0 km/h (0 Bft) W-SW 247 0 min 0,0 UV-I 1,6 C 2,4 C 0,0 km/h (0 Bft)
06.11.2011 02:00 3,1 C 13,7 C 3,7 C 2,8 C 2,2 C 0,0 C 90 % 91 % 0 % 1013,8 hPa 0,0 l/m 0,0 km/h (0 Bft) W-SW 247 0 min 0,0 UV-I 1,6 C 2,2 C 0,0 km/h (0 Bft)
06.11.2011 02:10 2,8 C 13,7 C 3,3 C 2,6 C 2,1 C 0,0 C 90 % 91 % 0 % 1013,8 hPa 0,0 l/m 0,0 km/h (0 Bft) N 0 0 min 0,0 UV-I 1,3 C 2,1 C 0,0 km/h (0 Bft)
06.11.2011 02:20 2,8 C 13,6 C 3,2 C 2,6 C 2,1 C 0,0 C 91 % 91 % 0 % 1014,6 hPa 0,0 l/m 0,0 km/h (0 Bft) W-SW 247 0 min 0,0 UV-I 1,5 C 2,1 C 0,0 km/h (0 Bft)
06.11.2011 02:25 2,7 C 13,6 C 3,3 C 2,5 C 2,1 C 0,0 C 91 % 91 % 0 % 1014,6 hPa 0,0 l/m 0,0 km/h (0 Bft) W-SW 247 0 min 0,0 UV-I 1,4 C 2,1 C 0,0 km/h (0 Bft)
06.11.2011 02:30 2,7 C 13,6 C 3,2 C 2,5 C 2,1 C 0,0 C 91 % 91 % 0 % 1014,6 hPa 0,0 l/m 0,0 km/h (0 Bft) W-SW 247 0 min 0,0 UV-I 1,4 C 2,1 C 0,0 km/h (0 Bft)
06.11.2011 02:35 2,7 C 13,6 C 3,2 C 2,4 C 1,9 C 0,0 C 91 % 91 % 0 % 1014,6 hPa 0,0 l/m 0,0 km/h (0 Bft) W-SW 247 0 min 0,0 UV-I 1,4 C 1,9 C 0,0 km/h (0 Bft)
06.11.2011 02:40 2,7 C 13,6 C 3,3 C 2,4 C 1,8 C 0,0 C 91 % 91 % 0 % 1014,3 hPa 0,0 l/m 0,0 km/h (0 Bft) W-SW 247 0 min 0,0 UV-I 1,4 C 1,8 C 0,0 km/h (0 Bft)
06.11.2011 02:45 2,5 C 13,6 C 3,1 C 2,3 C 1,8 C 0,0 C 91 % 91 % 0 % 1014,3 hPa 0,0 l/m 0,0 km/h (0 Bft) O-SO 112 0 min 0,0 UV-I 1,2 C 1,8 C 0,0 km/h (0 Bft)
06.11.2011 02:50 2,5 C 13,6 C 3,1 C 2,3 C 1,8 C 0,0 C 91 % 91 % 0 % 1014,3 hPa 0,0 l/m 0,0 km/h (0 Bft) SO 135 0 min 0,0 UV-I 1,2 C 1,8 C 0,0 km/h (0 Bft)
06.11.2011 02:55 2,5 C 13,6 C 3,1 C 2,2 C 1,7 C 0,0 C 91 % 91 % 0 % 1014,3 hPa 0,0 l/m 0,0 km/h (0 Bft) W-SW 247 0 min 0,0 UV-I 1,2 C 1,7 C 0,0 km/h (0 Bft)
06.11.2011 03:00 2,4 C 13,6 C 3,0 C 2,2 C 1,7 C 0,0 C 91 % 91 % 0 % 1014,1 hPa 0,0 l/m 0,0 km/h (0 Bft) W-SW 247 0 min 0,0 UV-I 1,1 C 1,7 C 0,0 km/h (0 Bft)
06.11.2011 03:11 2,3 C 13,5 C 2,9 C 2,0 C 1,4 C 0,0 C 91 % 91 % 0 % 1014,1 hPa 0,0 l/m 0,0 km/h (0 Bft) N 0 0 min 0,0 UV-I 1,0 C 1,4 C 0,0 km/h (0 Bft)
06.11.2011 03:20 2,3 C 13,5 C 2,7 C 2,0 C 1,4 C 0,0 C 91 % 91 % 0 % 1014,1 hPa 0,0 l/m 0,0 km/h (0 Bft) SW 225 0 min 0,0 UV-I 1,0 C 1,4 C 0,0 km/h (0 Bft)
06.11.2011 03:25 2,3 C 13,5 C 2,7 C 2,0 C 1,5 C 0,0 C 91 % 91 % 0 % 1014,1 hPa 0,0 l/m 0,0 km/h (0 Bft) SW 225 0 min 0,0 UV-I 1,0 C 1,5 C 0,0 km/h (0 Bft)
06.11.2011 03:30 2,1 C 13,5 C 2,7 C 1,9 C 1,5 C 0,0 C 91 % 91 % 0 % 1014,1 hPa 0,0 l/m 0,0 km/h (0 Bft) SW 225 0 min 0,0 UV-I 0,8 C 1,5 C 0,0 km/h (0 Bft)
06.11.2011 03:35 2,1 C 13,5 C 2,7 C 1,9 C 1,6 C 0,0 C 91 % 91 % 0 % 1014,1 hPa 0,0 l/m 0,0 km/h (0 Bft) SW 225 0 min 0,0 UV-I 0,8 C 1,6 C 0,0 km/h (0 Bft)
06.11.2011 03:40 2,1 C 13,5 C 2,7 C 1,9 C 1,6 C 0,0 C 91 % 91 % 0 % 1014,1 hPa 0,0 l/m 0,0 km/h (0 Bft) SW 225 0 min 0,0 UV-I 0,8 C 1,6 C 0,0 km/h (0 Bft)
06.11.2011 03:45 2,0 C 13,5 C 2,8 C 1,8 C 1,4 C 0,0 C 91 % 91 % 0 % 1014,1 hPa 0,0 l/m 0,0 km/h (0 Bft) SW 225 0 min 0,0 UV-I 0,7 C 1,4 C 0,0 km/h (0 Bft)
06.11.2011 03:50 2,1 C 13,5 C 2,8 C 1,9 C 1,4 C 0,0 C 91 % 91 % 0 % 1014,1 hPa 0,0 l/m 0,0 km/h (0 Bft) W-SW 247 0 min 0,0 UV-I 0,8 C 1,4 C 0,0 km/h (0 Bft)
06.11.2011 03:55 2,0 C 13,5 C 2,8 C 1,8 C 1,4 C 0,0 C 91 % 91 % 0 % 1014,1 hPa 0,0 l/m 0,0 km/h (0 Bft) W-SW 247 0 min 0,0 UV-I 0,7 C 1,4 C 0,0 km/h (0 Bft)
06.11.2011 04:00 1,9 C 13,5 C 2,9 C 1,7 C 1,3 C 0,0 C 91 % 91 % 0 % 1014,4 hPa 0,0 l/m 0,0 km/h (0 Bft) W-SW 247 0 min 0,0 UV-I 0,6 C 1,3 C 0,0 km/h (0 Bft)
06.11.2011 04:10 1,8 C 13,4 C 2,7 C 1,6 C 1,1 C 0,0 C 91 % 91 % 0 % 1014,4 hPa 0,0 l/m 0,0 km/h (0 Bft) N 0 0 min 0,0 UV-I 0,5 C 1,1 C 0,0 km/h (0 Bft)
06.11.2011 04:20 1,6 C 13,4 C 2,5 C 1,4 C 1,0 C 0,0 C 91 % 91 % 0 % 1014,3 hPa 0,0 l/m 0,0 km/h (0 Bft) W-SW 247 0 min 0,0 UV-I 0,3 C 1,0 C 0,0 km/h (0 Bft)
06.11.2011 04:25 1,6 C 13,4 C 2,5 C 1,3 C 0,8 C 0,0 C 91 % 91 % 0 % 1014,3 hPa 0,0 l/m 0,0 km/h (0 Bft) W-SW 247 0 min 0,0 UV-I 0,3 C 0,8 C 0,0 km/h (0 Bft)
06.11.2011 04:30 1,6 C 13,4 C 2,4 C 1,3 C 0,8 C 0,0 C 91 % 91 % 0 % 1014,3 hPa 0,0 l/m 0,0 km/h (0 Bft) W-SW 247 0 min 0,0 UV-I 0,3 C 0,8 C 0,0 km/h (0 Bft)
06.11.2011 04:35 1,5 C 13,4 C 2,4 C 1,3 C 0,8 C 0,0 C 91 % 91 % 0 % 1014,3 hPa 0,0 l/m 0,0 km/h (0 Bft) W-SW 247 0 min 0,0 UV-I 0,2 C 0,8 C 0,0 km/h (0 Bft)
06.11.2011 04:40 1,5 C 13,4 C 2,4 C 1,3 C 0,8 C 0,0 C 91 % 91 % 0 % 1014,6 hPa 0,0 l/m 0,0 km/h (0 Bft) W-SW 247 0 min 0,0 UV-I 0,2 C 0,8 C 0,0 km/h (0 Bft)
06.11.2011 04:45 1,6 C 13,4 C 2,4 C 1,4 C 0,9 C 0,0 C 91 % 91 % 0 % 1014,6 hPa 0,0 l/m 0,0 km/h (0 Bft) S-SO 157 0 min 0,0 UV-I 0,3 C 0,9 C 0,0 km/h (0 Bft)
06.11.2011 04:50 1,6 C 13,4 C 2,3 C 1,4 C 0,9 C 0,0 C 91 % 91 % 0 % 1014,6 hPa 0,0 l/m 0,0 km/h (0 Bft) S-SO 157 0 min 0,0 UV-I 0,3 C 0,9 C 0,0 km/h (0 Bft)
06.11.2011 04:55 1,6 C 13,4 C 2,3 C 1,4 C 0,9 C 0,0 C 91 % 91 % 0 % 1014,6 hPa 0,0 l/m 0,0 km/h (0 Bft) S-SW 202 0 min 0,0 UV-I 0,3 C 0,9 C 0,0 km/h (0 Bft)
06.11.2011 05:00 1,5 C 13,4 C 2,3 C 1,2 C 0,7 C 0,0 C 91 % 91 % 0 % 1015,0 hPa 0,0 l/m 0,0 km/h (0 Bft) S-SW 202 0 min 0,0 UV-I 0,2 C 0,7 C 0,0 km/h (0 Bft)
06.11.2011 05:09 1,5 C 13,3 C 2,3 C 1,2 C 0,7 C 0,0 C 91 % 92 % 0 % 1015,0 hPa 0,0 l/m 0,0 km/h (0 Bft) N 0 0 min 0,0 UV-I 0,2 C 0,7 C 0,0 km/h (0 Bft)
06.11.2011 05:20 1,5 C 13,3 C 2,1 C 1,2 C 0,6 C 0,0 C 91 % 91 % 0 % 1014,4 hPa 0,0 l/m 0,0 km/h (0 Bft) SW 225 0 min 0,0 UV-I 0,2 C 0,6 C 0,0 km/h (0 Bft)
06.11.2011 05:25 1,3 C 13,3 C 2,3 C 1,0 C 0,5 C 0,0 C 91 % 92 % 0 % 1014,4 hPa 0,0 l/m 0,0 km/h (0 Bft) SW 225 0 min 0,0 UV-I -0,0 C 0,5 C 0,0 km/h (0 Bft)
06.11.2011 05:30 1,2 C 13,3 C 2,2 C 1,0 C 0,5 C 0,0 C 91 % 92 % 0 % 1014,4 hPa 0,0 l/m 0,0 km/h (0 Bft) SW 225 0 min 0,0 UV-I -0,1 C 0,5 C 0,0 km/h (0 Bft)
06.11.2011 05:35 1,2 C 13,3 C 2,1 C 0,9 C 0,4 C 0,0 C 91 % 92 % 0 % 1014,4 hPa 0,0 l/m 0,0 km/h (0 Bft) SW 225 0 min 0,0 UV-I -0,1 C 0,4 C 0,0 km/h (0 Bft)
06.11.2011 05:40 1,2 C 13,3 C 2,0 C 1,0 C 0,5 C 0,0 C 92 % 91 % 0 % 1014,1 hPa 0,0 l/m 0,0 km/h (0 Bft) S-SO 157 0 min 0,0 UV-I 0,0 C 0,5 C 0,0 km/h (0 Bft)
06.11.2011 05:45 1,4 C 13,3 C 2,0 C 1,2 C 0,7 C 0,0 C 92 % 91 % 0 % 1014,1 hPa 0,0 l/m 0,0 km/h (0 Bft) S-SO 157 0 min 0,0 UV-I 0,2 C 0,7 C 0,0 km/h (0 Bft)
06.11.2011 05:50 1,4 C 13,3 C 2,0 C 1,2 C 0,7 C 0,0 C 92 % 91 % 0 % 1014,1 hPa 0,0 l/m 0,0 km/h (0 Bft) S-SO 157 0 min 0,0 UV-I 0,2 C 0,7 C 0,0 km/h (0 Bft)
06.11.2011 05:55 1,3 C 13,3 C 2,1 C 1,1 C 0,6 C 0,0 C 92 % 92 % 0 % 1014,1 hPa 0,0 l/m 0,0 km/h (0 Bft) SW 225 0 min 0,0 UV-I 0,1 C 0,6 C 0,0 km/h (0 Bft)
06.11.2011 06:00 1,3 C 13,3 C 2,1 C 1,1 C 0,6 C 0,0 C 92 % 92 % 0 % 1014,1 hPa 0,0 l/m 0,0 km/h (0 Bft) SW 225 0 min 0,0 UV-I 0,1 C 0,6 C 0,0 km/h (0 Bft)
06.11.2011 06:11 1,2 C 13,3 C 2,0 C 0,9 C 0,4 C 0,0 C 92 % 92 % 0 % 1014,1 hPa 0,0 l/m 0,0 km/h (0 Bft) N 0 0 min 0,0 UV-I 0,0 C 0,4 C 0,0 km/h (0 Bft)
06.11.2011 06:20 1,2 C 13,2 C 2,0 C 1,0 C 0,5 C 0,0 C 92 % 92 % 0 % 1014,6 hPa 0,0 l/m 0,0 km/h (0 Bft) SW 225 0 min 0,0 UV-I 0,0 C 0,5 C 0,0 km/h (0 Bft)
06.11.2011 06:25 1,1 C 13,2 C 2,0 C 0,9 C 0,4 C 0,0 C 92 % 92 % 0 % 1014,6 hPa 0,0 l/m 0,0 km/h (0 Bft) SW 225 0 min 0,0 UV-I -0,1 C 0,4 C 0,0 km/h (0 Bft)
06.11.2011 06:30 1,1 C 13,2 C 1,9 C 0,9 C 0,4 C 0,0 C 92 % 92 % 0 % 1014,6 hPa 0,0 l/m 0,0 km/h (0 Bft) SW 225 0 min 0,0 UV-I -0,1 C 0,4 C 0,0 km/h (0 Bft)
06.11.2011 06:35 1,1 C 13,2 C 1,9 C 0,9 C 0,4 C 0,0 C 92 % 92 % 0 % 1014,6 hPa 0,0 l/m 0,0 km/h (0 Bft) SW 225 0 min 0,0 UV-I -0,1 C 0,4 C 0,0 km/h (0 Bft)
06.11.2011 06:40 1,1 C 13,2 C 1,7 C 0,9 C 0,4 C 0,0 C 92 % 92 % 0 % 1014,4 hPa 0,0 l/m 0,0 km/h (0 Bft) SO 135 0 min 0,0 UV-I -0,1 C 0,4 C 0,0 km/h (0 Bft)
06.11.2011 06:45 1,2 C 13,2 C 1,9 C 1,0 C 0,5 C 0,0 C 92 % 92 % 0 % 1014,4 hPa 0,0 l/m 0,0 km/h (0 Bft) SO 135 0 min 0,0 UV-I 0,0 C 0,5 C 0,0 km/h (0 Bft)
06.11.2011 06:50 1,1 C 13,2 C 1,8 C 0,9 C 0,4 C 0,0 C 92 % 92 % 0 % 1014,4 hPa 0,0 l/m 0,0 km/h (0 Bft) W-SW 247 0 min 0,0 UV-I -0,1 C 0,4 C 0,0 km/h (0 Bft)
06.11.2011 06:55 1,1 C 13,2 C 1,9 C 0,8 C 0,3 C 0,0 C 92 % 92 % 0 % 1014,4 hPa 0,0 l/m 0,0 km/h (0 Bft) W-SW 247 0 min 0,0 UV-I -0,1 C 0,3 C 0,0 km/h (0 Bft)
06.11.2011 07:00 0,9 C 13,2 C 1,9 C 0,7 C 0,2 C 0,0 C 92 % 92 % 0 % 1014,9 hPa 0,0 l/m 0,0 km/h (0 Bft) W-SW 247 0 min 0,0 UV-I -0,2 C 0,2 C 0,0 km/h (0 Bft)
06.11.2011 07:11 0,8 C 13,1 C 1,6 C 0,5 C 0,0 C 0,0 C 91 % 92 % 0 % 1014,9 hPa 0,0 l/m 0,0 km/h (0 Bft) N 0 0 min 0,0 UV-I -0,5 C 0,0 C 0,0 km/h (0 Bft)
06.11.2011 07:20 0,8 C 13,1 C 1,6 C 0,6 C 0,2 C 0,0 C 91 % 92 % 0 % 1015,6 hPa 0,0 l/m 0,0 km/h (0 Bft) SW 225 0 min 0,0 UV-I -0,5 C 0,2 C 0,0 km/h (0 Bft)
06.11.2011 07:25 0,8 C 13,1 C 1,7 C 0,6 C 0,2 C 0,0 C 92 % 92 % 0 % 1015,6 hPa 0,0 l/m 0,0 km/h (0 Bft) W-SW 247 0 min 0,0 UV-I -0,3 C 0,2 C 0,0 km/h (0 Bft)
06.11.2011 07:30 0,8 C 13,1 C 1,9 C 0,6 C 0,3 C 0,0 C 92 % 92 % 0 % 1015,6 hPa 0,0 l/m 0,0 km/h (0 Bft) W-SW 247 0 min 0,0 UV-I -0,3 C 0,3 C 0,0 km/h (0 Bft)
06.11.2011 07:35 0,8 C 13,1 C 1,9 C 0,6 C 0,3 C 0,0 C 92 % 92 % 0 % 1015,6 hPa 0,0 l/m 0,0 km/h (0 Bft) W-SW 247 0 min 0,0 UV-I -0,3 C 0,3 C 0,0 km/h (0 Bft)
06.11.2011 07:40 0,8 C 13,1 C 1,9 C 0,6 C 0,3 C 0,0 C 92 % 92 % 0 % 1015,1 hPa 0,0 l/m 0,0 km/h (0 Bft) W-SW 247 0 min 0,0 UV-I -0,3 C 0,3 C 0,0 km/h (0 Bft)
06.11.2011 07:45 0,8 C 13,1 C 1,8 C 0,7 C 0,5 C 0,0 C 92 % 92 % 0 % 1015,1 hPa 0,0 l/m 0,0 km/h (0 Bft) W-SW 247 0 min 0,0 UV-I -0,3 C 0,5 C 0,0 km/h (0 Bft)
06.11.2011 07:50 0,8 C 13,1 C 1,9 C 0,7 C 0,5 C 0,0 C 92 % 92 % 0 % 1015,1 hPa 0,0 l/m 0,0 km/h (0 Bft) W-SW 247 0 min 0,0 UV-I -0,3 C 0,5 C 0,0 km/h (0 Bft)
06.11.2011 07:55 0,9 C 13,1 C 1,9 C 0,8 C 0,7 C 0,0 C 92 % 92 % 0 % 1015,1 hPa 0,0 l/m 0,0 km/h (0 Bft) SO 135 0 min 0,0 UV-I -0,2 C 0,7 C 0,0 km/h (0 Bft)
06.11.2011 08:00 1,0 C 13,1 C 1,9 C 1,0 C 1,0 C 0,0 C 92 % 92 % 0 % 1015,6 hPa 0,0 l/m 0,0 km/h (0 Bft) SO 135 0 min 0,0 UV-I -0,2 C 1,0 C 0,0 km/h (0 Bft)
06.11.2011 08:11 1,2 C 13,1 C 2,0 C 1,3 C 1,3 C 0,1 C 92 % 92 % 3 % 1015,6 hPa 0,0 l/m 0,0 km/h (0 Bft) N 0 0 min 0,0 UV-I 0,0 C 1,3 C 0,0 km/h (0 Bft)
06.11.2011 08:20 1,3 C 13,0 C 2,2 C 1,6 C 1,6 C 0,3 C 92 % 92 % 8 % 1015,8 hPa 0,0 l/m 0,3 km/h (0 Bft) W-SW 247 0 min 0,0 UV-I 0,1 C 1,6 C 0,0 km/h (0 Bft)
06.11.2011 08:25 1,4 C 13,0 C 2,3 C 1,6 C 1,6 C 0,2 C 92 % 92 % 5 % 1015,8 hPa 0,0 l/m 0,3 km/h (0 Bft) W-SW 247 0 min 0,0 UV-I 0,2 C 1,6 C 0,0 km/h (0 Bft)
06.11.2011 08:30 1,5 C 13,0 C 2,3 C 1,6 C 1,6 C 0,1 C 92 % 92 % 3 % 1015,8 hPa 0,0 l/m 0,0 km/h (0 Bft) W-SW 247 0 min 0,0 UV-I 0,3 C 1,6 C 0,0 km/h (0 Bft)
06.11.2011 08:35 1,5 C 13,0 C 2,5 C 1,8 C 1,8 C 0,3 C 92 % 92 % 8 % 1015,8 hPa 0,0 l/m 0,2 km/h (0 Bft) W 270 0 min 0,0 UV-I 0,3 C 1,8 C 0,0 km/h (0 Bft)
06.11.2011 08:40 1,6 C 13,0 C 2,5 C 1,9 C 1,9 C 0,3 C 92 % 93 % 8 % 1015,8 hPa 0,0 l/m 0,2 km/h (0 Bft) W-SW 247 0 min 0,0 UV-I 0,4 C 1,9 C 0,0 km/h (0 Bft)
06.11.2011 08:45 1,6 C 12,9 C 2,7 C 2,1 C 2,1 C 0,5 C 92 % 93 % 13 % 1015,8 hPa 0,0 l/m 0,0 km/h (0 Bft) SW 225 0 min 0,0 UV-I 0,4 C 2,1 C 0,0 km/h (0 Bft)
06.11.2011 08:50 1,6 C 12,9 C 2,8 C 2,4 C 2,4 C 0,8 C 92 % 93 % 21 % 1015,8 hPa 0,0 l/m 0,0 km/h (0 Bft) W-SW 247 0 min 0,0 UV-I 0,4 C 2,4 C 0,0 km/h (0 Bft)
06.11.2011 08:55 1,9 C 12,9 C 2,9 C 2,6 C 2,6 C 0,7 C 93 % 93 % 18 % 1015,8 hPa 0,0 l/m 0,0 km/h (0 Bft) W-SW 247 0 min 0,0 UV-I 0,9 C 2,6 C 0,0 km/h (0 Bft)
06.11.2011 09:00 2,0 C 12,9 C 3,1 C 2,8 C 2,8 C 0,8 C 93 % 93 % 21 % 1015,3 hPa 0,0 l/m 0,0 km/h (0 Bft) W-SW 247 0 min 0,0 UV-I 1,0 C 2,8 C 0,0 km/h (0 Bft)
06.11.2011 09:10 2,3 C 12,9 C 3,3 C 3,4 C 3,4 C 1,1 C 93 % 93 % 29 % 1015,3 hPa 0,0 l/m 0,2 km/h (0 Bft) N 0 0 min 0,0 UV-I 1,3 C 3,4 C 1,9 km/h (1 Bft)
06.11.2011 09:20 2,9 C 12,9 C 3,9 C 3,9 C 3,9 C 1,0 C 93 % 93 % 26 % 1015,8 hPa 0,0 l/m 1,1 km/h (1 Bft) W-SW 247 0 min 0,0 UV-I 1,9 C 3,9 C 2,7 km/h (1 Bft)
06.11.2011 09:25 3,2 C 12,9 C 4,0 C 4,2 C 4,2 C 1,0 C 93 % 93 % 26 % 1015,8 hPa 0,0 l/m 0,2 km/h (0 Bft) W-SW 247 0 min 0,0 UV-I 2,2 C 4,2 C 0,0 km/h (0 Bft)
06.11.2011 09:30 3,4 C 12,9 C 4,1 C 4,5 C 4,5 C 1,1 C 93 % 93 % 29 % 1015,8 hPa 0,0 l/m 0,0 km/h (0 Bft) SW 225 0 min 0,0 UV-I 2,4 C 4,5 C 0,0 km/h (0 Bft)
06.11.2011 09:35 3,7 C 12,9 C 4,4 C 4,8 C 4,8 C 1,1 C 94 % 93 % 29 % 1015,8 hPa 0,0 l/m 0,0 km/h (0 Bft) SW 225 0 min 0,0 UV-I 2,8 C 4,8 C 0,0 km/h (0 Bft)
06.11.2011 09:40 3,8 C 12,8 C 4,5 C 5,1 C 5,1 C 1,3 C 94 % 93 % 34 % 1015,8 hPa 0,0 l/m 0,0 km/h (0 Bft) SW 225 0 min 0,0 UV-I 2,9 C 5,1 C 0,0 km/h (0 Bft)
06.11.2011 09:45 4,3 C 12,9 C 4,8 C 5,5 C 5,5 C 1,2 C 94 % 93 % 32 % 1015,8 hPa 0,0 l/m 0,2 km/h (0 Bft) W-SW 247 0 min 0,0 UV-I 3,4 C 5,5 C 0,0 km/h (0 Bft)
06.11.2011 09:50 4,5 C 12,9 C 5,1 C 5,8 C 5,8 C 1,3 C 94 % 93 % 34 % 1015,8 hPa 0,0 l/m 0,2 km/h (0 Bft) SW 225 0 min 0,0 UV-I 3,6 C 5,8 C 0,0 km/h (0 Bft)
06.11.2011 09:55 4,8 C 12,9 C 5,3 C 6,2 C 6,2 C 1,4 C 94 % 93 % 37 % 1015,8 hPa 0,0 l/m 0,0 km/h (0 Bft) S-SW 202 0 min 0,0 UV-I 3,9 C 6,2 C 0,0 km/h (0 Bft)
06.11.2011 10:00 5,1 C 12,9 C 5,5 C 6,5 C 6,5 C 1,4 C 94 % 93 % 37 % 1016,1 hPa 0,0 l/m 0,0 km/h (0 Bft) SW 225 0 min 0,0 UV-I 4,2 C 6,5 C 0,0 km/h (0 Bft)
06.11.2011 10:11 5,6 C 12,9 C 6,1 C 7,2 C 7,2 C 1,6 C 94 % 94 % 42 % 1016,1 hPa 0,0 l/m 0,3 km/h (0 Bft) N 0 0 min 0,0 UV-I 4,7 C 7,2 C 2,9 km/h (1 Bft)
06.11.2011 10:20 6,3 C 12,7 C 6,5 C 7,8 C 7,8 C 1,5 C 94 % 94 % 39 % 1016,0 hPa 0,0 l/m 0,8 km/h (0 Bft) W-SW 247 0 min 0,0 UV-I 5,4 C 7,8 C 0,0 km/h (0 Bft)
06.11.2011 10:25 6,5 C 12,7 C 6,8 C 8,1 C 8,1 C 1,6 C 94 % 94 % 42 % 1016,0 hPa 0,0 l/m 0,3 km/h (0 Bft) W-SW 247 0 min 0,0 UV-I 5,6 C 8,1 C 1,6 km/h (1 Bft)
06.11.2011 10:30 6,7 C 12,7 C 7,0 C 8,5 C 8,5 C 1,8 C 94 % 94 % 47 % 1016,0 hPa 0,0 l/m 0,3 km/h (0 Bft) SW 225 0 min 0,0 UV-I 5,8 C 8,5 C 0,0 km/h (0 Bft)
06.11.2011 10:35 6,9 C 12,6 C 7,3 C 9,0 C 9,0 C 2,1 C 94 % 94 % 55 % 1016,0 hPa 0,0 l/m 0,5 km/h (0 Bft) W-SW 247 0 min 0,0 UV-I 6,0 C 9,0 C 0,0 km/h (0 Bft)
06.11.2011 10:40 7,2 C 12,6 C 7,4 C 9,2 C 9,2 C 2,0 C 94 % 94 % 53 % 1015,9 hPa 0,0 l/m 0,5 km/h (0 Bft) W-SW 247 0 min 0,0 UV-I 6,3 C 9,2 C 0,0 km/h (0 Bft)
06.11.2011 10:45 7,5 C 12,6 C 7,6 C 9,9 C 9,9 C 2,4 C 94 % 93 % 63 % 1015,9 hPa 0,0 l/m 0,2 km/h (0 Bft) SW 225 0 min 0,0 UV-I 6,6 C 9,9 C 0,0 km/h (0 Bft)
06.11.2011 10:50 7,6 C 12,6 C 7,9 C 10,5 C 10,5 C 2,9 C 94 % 93 % 76 % 1015,9 hPa 0,0 l/m 0,0 km/h (0 Bft) W-SW 247 0 min 0,0 UV-I 6,7 C 10,5 C 0,0 km/h (0 Bft)
06.11.2011 10:55 7,9 C 12,6 C 8,2 C 11,5 C 11,5 C 3,6 C 94 % 93 % 95 % 1015,9 hPa 0,0 l/m 0,3 km/h (0 Bft) S-SW 202 5 min 0,0 UV-I 7,0 C 11,5 C 0,0 km/h (0 Bft)
06.11.2011 11:00 8,1 C 12,6 C 8,4 C 11,6 C 11,6 C 3,5 C 94 % 94 % 92 % 1016,5 hPa 0,0 l/m 0,3 km/h (0 Bft) SW 225 5 min 0,0 UV-I 7,2 C 11,6 C 0,0 km/h (0 Bft)
06.11.2011 11:11 9,1 C 12,5 C 9,1 C 12,5 C 12,5 C 3,4 C 94 % 93 % 89 % 1016,5 hPa 0,0 l/m 0,6 km/h (0 Bft) N 0 11 min 0,0 UV-I 8,2 C 12,5 C 0,0 km/h (0 Bft)
06.11.2011 11:20 9,8 C 12,5 C 9,7 C 13,2 C 13,2 C 3,4 C 94 % 93 % 89 % 1016,1 hPa 0,0 l/m 1,1 km/h (1 Bft) W 270 9 min 0,0 UV-I 8,9 C 13,2 C 3,2 km/h (1 Bft)
06.11.2011 11:25 10,3 C 12,5 C 9,9 C 13,4 C 13,4 C 3,1 C 94 % 93 % 82 % 1016,1 hPa 0,0 l/m 1,1 km/h (1 Bft) O 90 0 min 0,0 UV-I 9,4 C 13,4 C 0,0 km/h (0 Bft)
06.11.2011 11:30 10,9 C 12,4 C 10,3 C 13,9 C 13,9 C 3,0 C 94 % 93 % 79 % 1016,1 hPa 0,0 l/m 1,1 km/h (1 Bft) SO 135 0 min 0,0 UV-I 10,0 C 13,9 C 3,4 km/h (1 Bft)
06.11.2011 11:35 11,5 C 12,4 C 11,1 C 14,7 C 14,7 C 3,2 C 92 % 92 % 84 % 1016,1 hPa 0,0 l/m 2,6 km/h (1 Bft) O-NO 67 0 min 0,0 UV-I 10,2 C 14,7 C 4,7 km/h (1 Bft)
06.11.2011 11:40 12,2 C 12,4 C 11,3 C 15,3 C 15,3 C 3,1 C 87 % 92 % 82 % 1015,9 hPa 0,0 l/m 3,7 km/h (1 Bft) O-SO 112 0 min 0,0 UV-I 10,1 C 15,3 C 8,2 km/h (2 Bft)
06.11.2011 11:45 12,5 C 12,5 C 11,6 C 16,0 C 16,0 C 3,5 C 83 % 89 % 92 % 1015,9 hPa 0,0 l/m 4,0 km/h (1 Bft) O-NO 67 5 min 0,0 UV-I 9,7 C 16,0 C 2,9 km/h (1 Bft)
06.11.2011 11:50 12,9 C 12,5 C 11,9 C 16,3 C 16,3 C 3,4 C 81 % 88 % 89 % 1015,9 hPa 0,0 l/m 3,7 km/h (1 Bft) O-SO 112 5 min 0,0 UV-I 9,7 C 16,3 C 2,6 km/h (1 Bft)
06.11.2011 11:55 13,1 C 12,5 C 12,2 C 16,5 C 16,5 C 3,4 C 81 % 87 % 89 % 1015,9 hPa 0,0 l/m 1,9 km/h (1 Bft) O-SO 112 5 min 0,0 UV-I 9,9 C 16,5 C 0,0 km/h (0 Bft)
06.11.2011 12:00 13,3 C 12,5 C 12,4 C 16,7 C 16,7 C 3,4 C 78 % 86 % 89 % 1016,1 hPa 0,0 l/m 1,9 km/h (1 Bft) O-NO 67 5 min 0,0 UV-I 9,5 C 16,7 C 10,6 km/h (2 Bft)
06.11.2011 12:11 13,4 C 12,5 C 12,8 C 15,8 C 15,8 C 2,4 C 77 % 84 % 63 % 1016,1 hPa 0,0 l/m 5,1 km/h (1 Bft) N 0 0 min 0,0 UV-I 9,5 C 15,8 C 7,9 km/h (2 Bft)
06.11.2011 12:20 13,6 C 12,5 C 13,0 C 15,5 C 15,5 C 1,9 C 76 % 82 % 50 % 1016,0 hPa 0,0 l/m 5,5 km/h (1 Bft) O-NO 67 0 min 0,0 UV-I 9,4 C 15,5 C 6,9 km/h (2 Bft)
06.11.2011 12:25 13,6 C 12,5 C 13,2 C 15,3 C 15,3 C 1,7 C 75 % 80 % 45 % 1016,0 hPa 0,0 l/m 5,6 km/h (1 Bft) NO 45 0 min 0,0 UV-I 9,3 C 15,3 C 7,1 km/h (2 Bft)
06.11.2011 12:30 13,7 C 12,5 C 13,2 C 15,4 C 15,4 C 1,7 C 74 % 80 % 45 % 1016,0 hPa 0,0 l/m 6,6 km/h (2 Bft) O 90 0 min 0,0 UV-I 9,2 C 15,4 C 5,3 km/h (1 Bft)
06.11.2011 12:35 13,9 C 12,5 C 13,5 C 15,8 C 15,8 C 1,9 C 74 % 79 % 50 % 1016,0 hPa 0,0 l/m 6,0 km/h (2 Bft) O-NO 67 0 min 0,0 UV-I 9,3 C 15,8 C 6,6 km/h (2 Bft)
06.11.2011 12:40 13,9 C 12,6 C 13,5 C 15,7 C 15,7 C 1,8 C 74 % 78 % 47 % 1016,6 hPa 0,0 l/m 5,5 km/h (1 Bft) O-NO 67 0 min 0,0 UV-I 9,3 C 15,7 C 7,2 km/h (2 Bft)
06.11.2011 12:45 14,0 C 12,6 C 13,6 C 15,5 C 15,5 C 1,5 C 74 % 78 % 39 % 1016,6 hPa 0,0 l/m 5,8 km/h (2 Bft) O 90 0 min 0,0 UV-I 9,4 C 15,5 C 3,9 km/h (1 Bft)
06.11.2011 12:50 14,1 C 12,6 C 13,7 C 15,6 C 15,6 C 1,5 C 72 % 77 % 39 % 1016,6 hPa 0,0 l/m 6,1 km/h (2 Bft) O-NO 67 0 min 0,0 UV-I 9,1 C 15,6 C 10,9 km/h (2 Bft)
06.11.2011 12:55 14,2 C 12,6 C 13,9 C 15,7 C 15,7 C 1,5 C 71 % 77 % 39 % 1016,6 hPa 0,0 l/m 5,3 km/h (1 Bft) O 90 0 min 0,0 UV-I 9,0 C 15,7 C 4,8 km/h (1 Bft)
06.11.2011 13:00 14,3 C 12,6 C 13,9 C 16,2 C 16,2 C 1,9 C 72 % 77 % 50 % 1015,9 hPa 0,0 l/m 3,7 km/h (1 Bft) SO 135 0 min 0,0 UV-I 9,3 C 16,2 C 10,9 km/h (2 Bft)
06.11.2011 13:11 14,4 C 12,6 C 14,0 C 17,3 C 17,3 C 2,9 C 71 % 76 % 76 % 1015,9 hPa 0,0 l/m 2,4 km/h (1 Bft) N 0 0 min 0,0 UV-I 9,2 C 17,3 C 8,7 km/h (2 Bft)
06.11.2011 13:20 14,4 C 12,7 C 14,1 C 17,0 C 17,0 C 2,6 C 71 % 75 % 68 % 1015,9 hPa 0,0 l/m 4,2 km/h (1 Bft) O 90 0 min 0,0 UV-I 9,2 C 17,0 C 5,3 km/h (1 Bft)
06.11.2011 13:25 14,4 C 12,7 C 14,0 C 17,2 C 17,2 C 2,8 C 70 % 74 % 74 % 1015,9 hPa 0,0 l/m 3,4 km/h (1 Bft) SO 135 0 min 0,0 UV-I 9,0 C 17,2 C 3,9 km/h (1 Bft)
06.11.2011 13:30 14,4 C 12,7 C 14,1 C 17,6 C 17,6 C 3,2 C 71 % 75 % 84 % 1015,9 hPa 0,0 l/m 2,1 km/h (1 Bft) W-SW 247 0 min 0,0 UV-I 9,2 C 17,6 C 1,6 km/h (1 Bft)
06.11.2011 13:35 14,4 C 12,7 C 14,3 C 18,2 C 18,2 C 3,8 C 70 % 74 % 100 % 1015,9 hPa 0,0 l/m 1,6 km/h (1 Bft) O-SO 112 5 min 0,0 UV-I 9,0 C 18,2 C 1,9 km/h (1 Bft)
06.11.2011 13:40 14,5 C 12,7 C 14,3 C 18,2 C 18,2 C 3,7 C 70 % 74 % 97 % 1015,8 hPa 0,0 l/m 2,1 km/h (1 Bft) O-NO 67 5 min 0,0 UV-I 9,1 C 18,2 C 2,7 km/h (1 Bft)
06.11.2011 13:45 14,6 C 12,7 C 14,4 C 18,1 C 18,1 C 3,5 C 70 % 75 % 92 % 1015,8 hPa 0,0 l/m 2,3 km/h (1 Bft) NW 315 5 min 0,0 UV-I 9,2 C 18,1 C 0,0 km/h (0 Bft)
06.11.2011 13:50 14,7 C 12,7 C 14,4 C 18,3 C 18,3 C 3,6 C 70 % 74 % 95 % 1015,8 hPa 0,0 l/m 2,1 km/h (1 Bft) O-NO 67 5 min 0,0 UV-I 9,3 C 18,3 C 3,2 km/h (1 Bft)
06.11.2011 13:55 14,7 C 12,7 C 14,7 C 18,7 C 18,7 C 4,0 C 70 % 74 % 100 % 1015,8 hPa 0,0 l/m 1,3 km/h (1 Bft) O-NO 67 5 min 0,0 UV-I 9,3 C 18,7 C 3,2 km/h (1 Bft)
06.11.2011 14:00 14,8 C 12,7 C 15,4 C 18,9 C 18,9 C 4,1 C 69 % 73 % 100 % 1016,0 hPa 0,0 l/m 2,1 km/h (1 Bft) O-NO 67 5 min 0,0 UV-I 9,2 C 18,9 C 3,7 km/h (1 Bft)
06.11.2011 14:11 14,8 C 12,8 C 16,5 C 17,9 C 17,9 C 3,1 C 68 % 67 % 82 % 1016,0 hPa 0,0 l/m 4,2 km/h (1 Bft) N 0 0 min 0,0 UV-I 9,0 C 17,9 C 8,7 km/h (2 Bft)
06.11.2011 14:20 14,8 C 12,8 C 16,5 C 16,9 C 16,9 C 2,1 C 68 % 67 % 55 % 1016,0 hPa 0,0 l/m 6,8 km/h (2 Bft) O-NO 67 0 min 0,0 UV-I 9,0 C 16,9 C 6,4 km/h (2 Bft)
06.11.2011 14:25 14,9 C 12,8 C 16,7 C 16,9 C 16,9 C 2,0 C 68 % 67 % 53 % 1016,0 hPa 0,0 l/m 6,3 km/h (2 Bft) O-NO 67 0 min 0,0 UV-I 9,0 C 16,9 C 4,0 km/h (1 Bft)
06.11.2011 14:30 14,8 C 12,8 C 16,9 C 17,0 C 17,0 C 2,2 C 69 % 67 % 58 % 1016,0 hPa 0,0 l/m 5,0 km/h (1 Bft) O-NO 67 0 min 0,0 UV-I 9,2 C 17,0 C 6,8 km/h (2 Bft)
06.11.2011 14:35 14,9 C 12,8 C 16,1 C 17,1 C 17,1 C 2,2 C 69 % 67 % 58 % 1016,0 hPa 0,0 l/m 3,9 km/h (1 Bft) O-NO 67 0 min 0,0 UV-I 9,3 C 17,1 C 2,4 km/h (1 Bft)
06.11.2011 14:40 14,8 C 12,9 C 15,8 C 17,1 C 17,1 C 2,3 C 69 % 68 % 61 % 1016,6 hPa 0,0 l/m 3,7 km/h (1 Bft) O-NO 67 0 min 0,0 UV-I 9,2 C 17,1 C 6,1 km/h (2 Bft)
06.11.2011 14:45 14,8 C 12,9 C 15,5 C 17,1 C 17,1 C 2,3 C 68 % 69 % 61 % 1016,6 hPa 0,0 l/m 4,2 km/h (1 Bft) O-NO 67 0 min 0,0 UV-I 9,0 C 17,1 C 5,6 km/h (1 Bft)
06.11.2011 14:50 14,8 C 12,9 C 15,3 C 17,1 C 17,1 C 2,3 C 68 % 69 % 61 % 1016,6 hPa 0,0 l/m 4,7 km/h (1 Bft) O-NO 67 0 min 0,0 UV-I 9,0 C 17,1 C 5,1 km/h (1 Bft)
06.11.2011 14:55 14,9 C 12,9 C 15,1 C 17,2 C 17,2 C 2,3 C 68 % 69 % 61 % 1016,6 hPa 0,0 l/m 4,3 km/h (1 Bft) O-NO 67 0 min 0,0 UV-I 9,0 C 17,2 C 5,0 km/h (1 Bft)
06.11.2011 15:00 14,9 C 12,9 C 15,0 C 17,2 C 17,2 C 2,3 C 68 % 70 % 61 % 1015,9 hPa 0,0 l/m 4,3 km/h (1 Bft) O-NO 67 0 min 0,0 UV-I 9,0 C 17,2 C 6,3 km/h (2 Bft)
06.11.2011 15:14 14,9 C 13,1 C 14,7 C 16,9 C 16,9 C 2,0 C 68 % 71 % 53 % 1015,9 hPa 0,0 l/m 4,0 km/h (1 Bft) O 90 0 min 0,0 UV-I 9,0 C 16,9 C 4,7 km/h (1 Bft)
06.11.2011 15:15 14,9 C 13,1 C 14,7 C 16,9 C 16,9 C 2,0 C 68 % 71 % 53 % 1015,9 hPa 0,0 l/m 4,0 km/h (1 Bft) O 90 0 min 0,0 UV-I 9,0 C 16,9 C 4,7 km/h (1 Bft)
06.11.2011 15:17 14,9 C 13,1 C 14,7 C 16,9 C 16,9 C 2,0 C 68 % 71 % 53 % 1015,9 hPa 0,0 l/m 4,0 km/h (1 Bft) O 90 0 min 0,0 UV-I 9,0 C 16,9 C 4,7 km/h (1 Bft)
06.11.2011 15:20 14,9 C 13,1 C 14,6 C 16,8 C 16,8 C 1,9 C 68 % 72 % 50 % 1016,4 hPa 0,0 l/m 3,9 km/h (1 Bft) O-SO 112 0 min 0,0 UV-I 9,0 C 16,8 C 4,7 km/h (1 Bft)
06.11.2011 15:25 14,8 C 13,1 C 14,5 C 16,6 C 16,6 C 1,8 C 68 % 72 % 47 % 1016,4 hPa 0,0 l/m 3,2 km/h (1 Bft) O-SO 112 0 min 0,0 UV-I 9,0 C 16,6 C 1,9 km/h (1 Bft)
06.11.2011 15:30 14,6 C 13,1 C 14,3 C 16,4 C 16,4 C 1,8 C 68 % 72 % 47 % 1016,4 hPa 0,0 l/m 2,7 km/h (1 Bft) O-NO 67 5 min 0,0 UV-I 8,8 C 16,4 C 2,4 km/h (1 Bft)
06.11.2011 15:35 14,7 C 13,1 C 14,1 C 16,2 C 16,2 C 1,5 C 68 % 72 % 39 % 1016,4 hPa 0,0 l/m 2,6 km/h (1 Bft) O-SO 112 5 min 0,0 UV-I 8,9 C 16,2 C 4,7 km/h (1 Bft)
06.11.2011 15:40 14,6 C 13,1 C 14,1 C 15,9 C 15,9 C 1,3 C 68 % 72 % 34 % 1016,3 hPa 0,0 l/m 3,2 km/h (1 Bft) O-NO 67 5 min 0,0 UV-I 8,8 C 15,9 C 5,5 km/h (1 Bft)
06.11.2011 15:45 14,4 C 13,1 C 13,9 C 15,7 C 15,7 C 1,3 C 68 % 73 % 34 % 1016,3 hPa 0,0 l/m 4,2 km/h (1 Bft) O 90 5 min 0,0 UV-I 8,6 C 15,7 C 3,1 km/h (1 Bft)
06.11.2011 15:50 14,4 C 13,2 C 13,7 C 15,4 C 15,4 C 1,0 C 69 % 73 % 26 % 1016,3 hPa 0,0 l/m 4,0 km/h (1 Bft) O 90 5 min 0,0 UV-I 8,8 C 15,4 C 4,3 km/h (1 Bft)
06.11.2011 15:55 14,2 C 13,2 C 13,6 C 15,1 C 15,1 C 0,9 C 69 % 74 % 24 % 1016,3 hPa 0,0 l/m 3,7 km/h (1 Bft) O-NO 67 5 min 0,0 UV-I 8,6 C 15,1 C 5,1 km/h (1 Bft)
06.11.2011 16:00 14,2 C 13,2 C 13,5 C 14,9 C 14,9 C 0,7 C 69 % 73 % 18 % 1016,4 hPa 0,0 l/m 4,3 km/h (1 Bft) O-NO 67 5 min 0,0 UV-I 8,6 C 14,9 C 7,7 km/h (2 Bft)
06.11.2011 16:10 13,9 C 13,2 C 13,3 C 14,3 C 14,3 C 0,4 C 70 % 74 % 11 % 1016,4 hPa 0,0 l/m 5,0 km/h (1 Bft) N 0 0 min 0,0 UV-I 8,5 C 14,3 C 4,7 km/h (1 Bft)
06.11.2011 16:20 13,7 C 13,2 C 12,8 C 13,7 C 13,6 C 0,0 C 71 % 75 % 0 % 1016,1 hPa 0,0 l/m 4,2 km/h (1 Bft) NO 45 0 min 0,0 UV-I 8,5 C 13,6 C 3,4 km/h (1 Bft)
06.11.2011 16:25 13,4 C 13,2 C 12,6 C 13,3 C 13,2 C 0,0 C 71 % 75 % 0 % 1016,1 hPa 0,0 l/m 3,1 km/h (1 Bft) O-NO 67 0 min 0,0 UV-I 8,3 C 13,2 C 2,6 km/h (1 Bft)
06.11.2011 16:30 13,3 C 13,3 C 12,6 C 13,1 C 12,8 C 0,0 C 71 % 76 % 0 % 1016,1 hPa 0,0 l/m 2,4 km/h (1 Bft) O-NO 67 0 min 0,0 UV-I 8,2 C 12,8 C 3,5 km/h (1 Bft)
06.11.2011 16:35 13,0 C 13,3 C 12,4 C 12,8 C 12,4 C 0,0 C 73 % 76 % 0 % 1016,1 hPa 0,0 l/m 2,4 km/h (1 Bft) O-NO 67 0 min 0,0 UV-I 8,3 C 12,4 C 2,3 km/h (1 Bft)
06.11.2011 16:40 12,8 C 13,3 C 12,2 C 12,6 C 12,3 C 0,0 C 73 % 77 % 0 % 1017,1 hPa 0,0 l/m 2,7 km/h (1 Bft) O-NO 67 0 min 0,0 UV-I 8,1 C 12,3 C 2,6 km/h (1 Bft)
06.11.2011 16:45 12,7 C 13,3 C 12,1 C 12,5 C 12,0 C 0,0 C 73 % 77 % 0 % 1017,1 hPa 0,0 l/m 2,3 km/h (1 Bft) O-SO 112 0 min 0,0 UV-I 8,0 C 12,0 C 1,6 km/h (1 Bft)
06.11.2011 16:50 12,4 C 13,3 C 11,9 C 12,2 C 11,7 C 0,0 C 74 % 77 % 0 % 1017,1 hPa 0,0 l/m 1,4 km/h (1 Bft) O-NO 67 0 min 0,0 UV-I 7,9 C 11,7 C 0,0 km/h (0 Bft)
06.11.2011 16:55 12,1 C 13,3 C 11,3 C 11,8 C 11,2 C 0,0 C 74 % 78 % 0 % 1017,1 hPa 0,0 l/m 0,2 km/h (0 Bft) NO 45 0 min 0,0 UV-I 7,6 C 11,2 C 0,0 km/h (0 Bft)
06.11.2011 17:00 12,0 C 13,3 C 11,1 C 11,6 C 10,7 C 0,0 C 75 % 78 % 0 % 1016,7 hPa 0,0 l/m 0,0 km/h (0 Bft) NO 45 0 min 0,0 UV-I 7,7 C 10,7 C 0,0 km/h (0 Bft)
06.11.2011 17:10 11,4 C 13,3 C 10,6 C 11,0 C 10,1 C 0,0 C 76 % 80 % 0 % 1016,7 hPa 0,0 l/m 0,3 km/h (0 Bft) N 0 0 min 0,0 UV-I 7,3 C 10,1 C 2,7 km/h (1 Bft)
06.11.2011 17:20 11,5 C 13,4 C 10,9 C 11,2 C 10,7 C 0,0 C 77 % 81 % 0 % 1016,6 hPa 0,0 l/m 2,6 km/h (1 Bft) O-NO 67 0 min 0,0 UV-I 7,6 C 10,7 C 2,3 km/h (1 Bft)
06.11.2011 17:25 11,3 C 13,4 C 10,7 C 11,1 C 10,6 C 0,0 C 77 % 80 % 0 % 1016,6 hPa 0,0 l/m 1,6 km/h (1 Bft) O-NO 67 0 min 0,0 UV-I 7,4 C 10,6 C 0,0 km/h (0 Bft)
06.11.2011 17:30 11,3 C 13,4 C 10,4 C 11,0 C 10,4 C 0,0 C 77 % 81 % 0 % 1016,6 hPa 0,0 l/m 0,5 km/h (0 Bft) O-SO 112 0 min 0,0 UV-I 7,4 C 10,4 C 0,0 km/h (0 Bft)
06.11.2011 17:35 10,9 C 13,5 C 10,0 C 10,6 C 10,0 C 0,0 C 78 % 81 % 0 % 1016,6 hPa 0,0 l/m 0,0 km/h (0 Bft) SW 225 0 min 0,0 UV-I 7,2 C 10,0 C 0,0 km/h (0 Bft)
06.11.2011 17:40 10,7 C 13,5 C 9,9 C 10,3 C 9,6 C 0,0 C 78 % 81 % 0 % 1017,0 hPa 0,0 l/m 0,0 km/h (0 Bft) W-SW 247 0 min 0,0 UV-I 7,0 C 9,6 C 0,0 km/h (0 Bft)
06.11.2011 17:45 10,5 C 13,5 C 9,6 C 10,0 C 9,1 C 0,0 C 79 % 82 % 0 % 1017,0 hPa 0,0 l/m 0,0 km/h (0 Bft) W-SW 247 0 min 0,0 UV-I 7,0 C 9,1 C 0,0 km/h (0 Bft)
06.11.2011 17:50 10,3 C 13,5 C 9,6 C 9,9 C 9,0 C 0,0 C 79 % 83 % 0 % 1017,0 hPa 0,0 l/m 0,2 km/h (0 Bft) W-SW 247 0 min 0,0 UV-I 6,8 C 9,0 C 0,0 km/h (0 Bft)
06.11.2011 17:55 9,9 C 13,6 C 9,4 C 9,5 C 8,8 C 0,0 C 80 % 83 % 0 % 1017,0 hPa 0,0 l/m 0,2 km/h (0 Bft) O 90 0 min 0,0 UV-I 6,6 C 8,8 C 0,0 km/h (0 Bft)
06.11.2011 18:00 9,6 C 13,6 C 9,1 C 9,3 C 8,7 C 0,0 C 80 % 83 % 0 % 1016,9 hPa 0,0 l/m 0,0 km/h (0 Bft) O-NO 67 0 min 0,0 UV-I 6,3 C 8,7 C 0,0 km/h (0 Bft)
06.11.2011 18:05 9,5 C 13,6 C 8,9 C 9,2 C 8,5 C 0,0 C 81 % 84 % 0 % 1016,9 hPa 0,0 l/m 0,0 km/h (0 Bft) O-NO 67 0 min 0,0 UV-I 6,4 C 8,5 C 0,0 km/h (0 Bft)
06.11.2011 18:10 9,2 C 13,6 C 8,8 C 8,9 C 8,4 C 0,0 C 81 % 84 % 0 % 1016,9 hPa 0,0 l/m 0,0 km/h (0 Bft) O-NO 67 0 min 0,0 UV-I 6,1 C 8,4 C 0,0 km/h (0 Bft)
06.11.2011 18:15 9,0 C 13,6 C 8,7 C 8,7 C 8,1 C 0,0 C 82 % 84 % 0 % 1016,9 hPa 0,0 l/m 0,0 km/h (0 Bft) SO 135 0 min 0,0 UV-I 6,1 C 8,1 C 0,0 km/h (0 Bft)
06.11.2011 18:20 8,9 C 13,7 C 8,5 C 8,6 C 8,0 C 0,0 C 82 % 84 % 0 % 1016,8 hPa 0,0 l/m 0,0 km/h (0 Bft) O-NO 67 0 min 0,0 UV-I 6,0 C 8,0 C 0,0 km/h (0 Bft)
06.11.2011 18:25 8,8 C 13,7 C 8,3 C 8,5 C 7,8 C 0,0 C 83 % 84 % 0 % 1016,8 hPa 0,0 l/m 0,0 km/h (0 Bft) SW 225 0 min 0,0 UV-I 6,1 C 7,8 C 0,0 km/h (0 Bft)
06.11.2011 18:30 8,7 C 13,7 C 8,2 C 8,4 C 7,7 C 0,0 C 84 % 85 % 0 % 1016,8 hPa 0,0 l/m 0,0 km/h (0 Bft) N-NW 337 0 min 0,0 UV-I 6,2 C 7,7 C 0,0 km/h (0 Bft)
06.11.2011 18:35 8,5 C 13,7 C 8,1 C 8,2 C 7,6 C 0,0 C 84 % 86 % 0 % 1016,8 hPa 0,0 l/m 0,0 km/h (0 Bft) N-NW 337 0 min 0,0 UV-I 6,0 C 7,6 C 0,0 km/h (0 Bft)
06.11.2011 18:40 8,4 C 13,7 C 8,1 C 8,1 C 7,5 C 0,0 C 84 % 86 % 0 % 1017,4 hPa 0,0 l/m 0,0 km/h (0 Bft) N-NW 337 0 min 0,0 UV-I 5,9 C 7,5 C 0,0 km/h (0 Bft)
06.11.2011 18:45 8,1 C 13,8 C 7,9 C 7,9 C 7,4 C 0,0 C 84 % 86 % 0 % 1017,4 hPa 0,0 l/m 0,0 km/h (0 Bft) N-NW 337 0 min 0,0 UV-I 5,6 C 7,4 C 0,0 km/h (0 Bft)
06.11.2011 18:50 8,1 C 13,8 C 7,8 C 7,9 C 7,4 C 0,0 C 85 % 86 % 0 % 1017,4 hPa 0,0 l/m 0,0 km/h (0 Bft) N-NW 337 0 min 0,0 UV-I 5,7 C 7,4 C 0,0 km/h (0 Bft)
06.11.2011 18:55 8,0 C 13,8 C 7,7 C 7,8 C 7,4 C 0,0 C 85 % 86 % 0 % 1017,4 hPa 0,0 l/m 0,0 km/h (0 Bft) N-NW 337 0 min 0,0 UV-I 5,6 C 7,4 C 0,0 km/h (0 Bft)
06.11.2011 19:00 7,9 C 13,8 C 7,6 C 7,7 C 7,3 C 0,0 C 85 % 86 % 0 % 1016,8 hPa 0,0 l/m 0,0 km/h (0 Bft) W 270 0 min 0,0 UV-I 5,5 C 7,3 C 0,0 km/h (0 Bft)
06.11.2011 19:10 7,7 C 13,9 C 7,4 C 7,4 C 6,8 C 0,0 C 86 % 87 % 0 % 1016,8 hPa 0,0 l/m 0,0 km/h (0 Bft) N 0 0 min 0,0 UV-I 5,5 C 6,8 C 0,0 km/h (0 Bft)
06.11.2011 19:20 7,4 C 13,9 C 7,2 C 7,1 C 6,6 C 0,0 C 86 % 87 % 0 % 1017,2 hPa 0,0 l/m 0,0 km/h (0 Bft) N-NW 337 0 min 0,0 UV-I 5,2 C 6,6 C 0,0 km/h (0 Bft)
06.11.2011 19:25 7,2 C 13,9 C 7,0 C 6,9 C 6,3 C 0,0 C 86 % 87 % 0 % 1017,2 hPa 0,0 l/m 0,0 km/h (0 Bft) NW 315 0 min 0,0 UV-I 5,0 C 6,3 C 0,0 km/h (0 Bft)
06.11.2011 19:30 7,1 C 14,0 C 7,1 C 6,8 C 6,2 C 0,0 C 86 % 87 % 0 % 1017,2 hPa 0,0 l/m 0,0 km/h (0 Bft) W-SW 247 0 min 0,0 UV-I 4,9 C 6,2 C 0,0 km/h (0 Bft)
06.11.2011 19:35 7,1 C 14,0 C 7,1 C 6,8 C 6,3 C 0,0 C 87 % 88 % 0 % 1017,2 hPa 0,0 l/m 0,0 km/h (0 Bft) S-SW 202 0 min 0,0 UV-I 5,1 C 6,3 C 0,0 km/h (0 Bft)
06.11.2011 19:40 7,0 C 14,0 C 7,1 C 6,7 C 6,2 C 0,0 C 87 % 88 % 0 % 1017,1 hPa 0,0 l/m 0,0 km/h (0 Bft) SW 225 0 min 0,0 UV-I 5,0 C 6,2 C 0,0 km/h (0 Bft)
06.11.2011 19:45 6,8 C 14,0 C 6,9 C 6,5 C 6,0 C 0,0 C 87 % 88 % 0 % 1017,1 hPa 0,0 l/m 0,0 km/h (0 Bft) SW 225 0 min 0,0 UV-I 4,8 C 6,0 C 0,0 km/h (0 Bft)
06.11.2011 19:50 6,8 C 14,0 C 6,8 C 6,5 C 6,0 C 0,0 C 87 % 88 % 0 % 1017,1 hPa 0,0 l/m 0,0 km/h (0 Bft) SW 225 0 min 0,0 UV-I 4,8 C 6,0 C 0,0 km/h (0 Bft)
06.11.2011 19:55 6,5 C 14,0 C 6,7 C 6,3 C 5,8 C 0,0 C 87 % 88 % 0 % 1017,1 hPa 0,0 l/m 0,0 km/h (0 Bft) SW 225 0 min 0,0 UV-I 4,5 C 5,8 C 0,0 km/h (0 Bft)
06.11.2011 20:00 6,4 C 14,0 C 6,7 C 6,2 C 5,8 C 0,0 C 87 % 88 % 0 % 1017,1 hPa 0,0 l/m 0,0 km/h (0 Bft) SW 225 0 min 0,0 UV-I 4,4 C 5,8 C 0,0 km/h (0 Bft)
06.11.2011 20:10 6,2 C 14,0 C 6,4 C 6,1 C 5,8 C 0,0 C 87 % 89 % 0 % 1017,1 hPa 0,0 l/m 0,0 km/h (0 Bft) N 0 0 min 0,0 UV-I 4,2 C 5,8 C 0,0 km/h (0 Bft)
06.11.2011 20:20 6,3 C 14,0 C 6,3 C 6,1 C 5,8 C 0,0 C 88 % 89 % 0 % 1017,4 hPa 0,0 l/m 0,0 km/h (0 Bft) W-NW 292 0 min 0,0 UV-I 4,5 C 5,8 C 0,0 km/h (0 Bft)
06.11.2011 20:25 6,0 C 14,0 C 6,3 C 5,9 C 5,6 C 0,0 C 88 % 89 % 0 % 1017,4 hPa 0,0 l/m 0,0 km/h (0 Bft) NO 45 0 min 0,0 UV-I 4,2 C 5,6 C 0,0 km/h (0 Bft)
06.11.2011 20:30 6,0 C 14,0 C 6,1 C 5,9 C 5,7 C 0,0 C 88 % 89 % 0 % 1017,4 hPa 0,0 l/m 0,0 km/h (0 Bft) NO 45 0 min 0,0 UV-I 4,2 C 5,7 C 0,0 km/h (0 Bft)
06.11.2011 20:35 6,0 C 14,0 C 6,1 C 5,9 C 5,7 C 0,0 C 89 % 90 % 0 % 1017,4 hPa 0,0 l/m 0,3 km/h (0 Bft) SW 225 0 min 0,0 UV-I 4,3 C 5,7 C 0,0 km/h (0 Bft)
06.11.2011 20:40 5,9 C 14,0 C 6,1 C 5,8 C 5,5 C 0,0 C 89 % 90 % 0 % 1017,9 hPa 0,0 l/m 0,3 km/h (0 Bft) SW 225 0 min 0,0 UV-I 4,2 C 5,5 C 0,0 km/h (0 Bft)
06.11.2011 20:45 5,8 C 14,0 C 6,0 C 5,6 C 5,3 C 0,0 C 89 % 89 % 0 % 1017,9 hPa 0,0 l/m 0,0 km/h (0 Bft) W-SW 247 0 min 0,0 UV-I 4,1 C 5,3 C 0,0 km/h (0 Bft)
06.11.2011 20:50 5,7 C 14,0 C 5,9 C 5,6 C 5,3 C 0,0 C 89 % 89 % 0 % 1017,9 hPa 0,0 l/m 0,5 km/h (0 Bft) O-NO 67 0 min 0,0 UV-I 4,0 C 5,3 C 3,5 km/h (1 Bft)
06.11.2011 20:55 5,8 C 14,0 C 5,9 C 5,7 C 5,6 C 0,0 C 90 % 90 % 0 % 1017,9 hPa 0,0 l/m 1,6 km/h (1 Bft) O-SO 112 0 min 0,0 UV-I 4,3 C 5,6 C 0,0 km/h (0 Bft)
06.11.2011 21:00 5,9 C 14,0 C 5,9 C 5,9 C 5,9 C 0,0 C 90 % 90 % 0 % 1017,1 hPa 0,0 l/m 1,8 km/h (1 Bft) O-NO 67 0 min 0,0 UV-I 4,4 C 5,9 C 2,9 km/h (1 Bft)
06.11.2011 21:11 6,7 C 14,0 C 6,5 C 6,7 C 6,6 C 0,0 C 91 % 91 % 0 % 1017,1 hPa 0,0 l/m 2,9 km/h (1 Bft) N 0 0 min 0,0 UV-I 5,3 C 6,6 C 3,7 km/h (1 Bft)
06.11.2011 21:20 6,3 C 13,9 C 6,0 C 6,1 C 5,8 C 0,0 C 89 % 89 % 0 % 1017,6 hPa 0,0 l/m 1,1 km/h (1 Bft) W 270 0 min 0,0 UV-I 4,6 C 5,8 C 0,0 km/h (0 Bft)
06.11.2011 21:25 6,0 C 13,9 C 5,9 C 5,8 C 5,4 C 0,0 C 88 % 90 % 0 % 1017,6 hPa 0,0 l/m 0,0 km/h (0 Bft) W 270 0 min 0,0 UV-I 4,2 C 5,4 C 0,0 km/h (0 Bft)
06.11.2011 21:30 5,9 C 13,9 C 5,8 C 5,7 C 5,3 C 0,0 C 88 % 90 % 0 % 1017,6 hPa 0,0 l/m 0,0 km/h (0 Bft) N-NO 22 0 min 0,0 UV-I 4,1 C 5,3 C 0,0 km/h (0 Bft)
06.11.2011 21:35 5,8 C 13,9 C 5,9 C 5,7 C 5,6 C 0,0 C 89 % 90 % 0 % 1017,6 hPa 0,0 l/m 0,6 km/h (0 Bft) O-NO 67 0 min 0,0 UV-I 4,1 C 5,6 C 1,6 km/h (1 Bft)
06.11.2011 21:40 5,8 C 13,9 C 5,9 C 5,9 C 5,9 C 0,1 C 89 % 90 % 0 % 1017,6 hPa 0,0 l/m 1,0 km/h (0 Bft) O 90 0 min 0,0 UV-I 4,1 C 5,9 C 2,1 km/h (1 Bft)
06.11.2011 21:45 5,9 C 13,9 C 6,1 C 6,2 C 6,2 C 0,3 C 89 % 90 % 0 % 1017,6 hPa 0,0 l/m 0,8 km/h (0 Bft) O-NO 67 0 min 0,0 UV-I 4,2 C 6,2 C 3,2 km/h (1 Bft)
06.11.2011 21:50 6,0 C 13,9 C 6,2 C 6,6 C 6,6 C 0,6 C 90 % 91 % 0 % 1017,6 hPa 0,0 l/m 1,3 km/h (1 Bft) O-NO 67 0 min 0,0 UV-I 4,5 C 6,6 C 2,7 km/h (1 Bft)
06.11.2011 21:55 6,4 C 13,8 C 6,7 C 7,2 C 7,2 C 0,8 C 91 % 91 % 0 % 1017,6 hPa 0,0 l/m 2,4 km/h (1 Bft) O-NO 67 0 min 0,0 UV-I 5,0 C 7,2 C 2,1 km/h (1 Bft)
06.11.2011 22:00 6,7 C 13,8 C 6,7 C 7,4 C 7,4 C 0,7 C 90 % 90 % 0 % 1017,8 hPa 0,0 l/m 1,4 km/h (1 Bft) NO 45 0 min 0,0 UV-I 5,2 C 7,4 C 0,0 km/h (0 Bft)
06.11.2011 22:11 6,5 C 13,8 C 6,3 C 6,7 C 6,7 C 0,2 C 90 % 90 % 0 % 1017,8 hPa 0,0 l/m 0,0 km/h (0 Bft) N 0 0 min 0,0 UV-I 5,0 C 6,7 C 0,0 km/h (0 Bft)
06.11.2011 22:20 6,3 C 13,9 C 6,1 C 6,2 C 6,1 C 0,0 C 89 % 90 % 0 % 1018,1 hPa 0,0 l/m 0,0 km/h (0 Bft) NO 45 0 min 0,0 UV-I 4,6 C 6,1 C 0,0 km/h (0 Bft)
06.11.2011 22:25 6,1 C 13,8 C 6,0 C 6,1 C 6,0 C 0,0 C 89 % 90 % 0 % 1018,1 hPa 0,0 l/m 0,0 km/h (0 Bft) N-NO 22 0 min 0,0 UV-I 4,4 C 6,0 C 0,0 km/h (0 Bft)
06.11.2011 22:30 6,0 C 13,8 C 5,9 C 5,9 C 5,8 C 0,0 C 88 % 89 % 0 % 1018,1 hPa 0,0 l/m 0,0 km/h (0 Bft) N-NO 22 0 min 0,0 UV-I 4,2 C 5,8 C 0,0 km/h (0 Bft)
06.11.2011 22:35 5,8 C 13,9 C 5,7 C 5,7 C 5,4 C 0,0 C 88 % 89 % 0 % 1018,1 hPa 0,0 l/m 0,0 km/h (0 Bft) N-NO 22 0 min 0,0 UV-I 4,0 C 5,4 C 0,0 km/h (0 Bft)
06.11.2011 22:40 5,6 C 13,8 C 5,6 C 5,5 C 5,2 C 0,0 C 88 % 89 % 0 % 1017,6 hPa 0,0 l/m 0,0 km/h (0 Bft) O-NO 67 0 min 0,0 UV-I 3,8 C 5,2 C 0,0 km/h (0 Bft)
06.11.2011 22:45 5,5 C 13,8 C 5,5 C 5,4 C 5,2 C 0,0 C 88 % 90 % 0 % 1017,6 hPa 0,0 l/m 0,0 km/h (0 Bft) O 90 0 min 0,0 UV-I 3,7 C 5,2 C 0,0 km/h (0 Bft)
06.11.2011 22:50 5,5 C 13,8 C 5,5 C 5,4 C 5,3 C 0,0 C 89 % 90 % 0 % 1017,6 hPa 0,0 l/m 0,0 km/h (0 Bft) S 180 0 min 0,0 UV-I 3,8 C 5,3 C 0,0 km/h (0 Bft)
06.11.2011 22:55 5,3 C 13,8 C 5,5 C 5,2 C 5,1 C 0,0 C 89 % 90 % 0 % 1017,6 hPa 0,0 l/m 0,0 km/h (0 Bft) W-SW 247 0 min 0,0 UV-I 3,6 C 5,1 C 0,0 km/h (0 Bft)
06.11.2011 23:00 5,2 C 13,8 C 5,2 C 5,0 C 4,7 C 0,0 C 89 % 90 % 0 % 1018,4 hPa 0,0 l/m 0,0 km/h (0 Bft) NW 315 0 min 0,0 UV-I 3,5 C 4,7 C 0,0 km/h (0 Bft)
06.11.2011 23:11 4,8 C 13,8 C 5,0 C 4,6 C 4,2 C 0,0 C 88 % 90 % 0 % 1018,4 hPa 0,0 l/m 0,0 km/h (0 Bft) N 0 0 min 0,0 UV-I 3,0 C 4,2 C 0,0 km/h (0 Bft)
06.11.2011 23:20 4,8 C 13,8 C 5,1 C 4,6 C 4,2 C 0,0 C 89 % 90 % 0 % 1017,6 hPa 0,0 l/m 0,0 km/h (0 Bft) SW 225 0 min 0,0 UV-I 3,1 C 4,2 C 0,0 km/h (0 Bft)
06.11.2011 23:25 4,7 C 13,8 C 5,1 C 4,5 C 4,1 C 0,0 C 89 % 90 % 0 % 1017,6 hPa 0,0 l/m 0,0 km/h (0 Bft) W-SW 247 0 min 0,0 UV-I 3,0 C 4,1 C 0,0 km/h (0 Bft)
06.11.2011 23:30 4,6 C 13,8 C 4,9 C 4,4 C 3,9 C 0,0 C 89 % 90 % 0 % 1017,6 hPa 0,0 l/m 0,0 km/h (0 Bft) W 270 0 min 0,0 UV-I 2,9 C 3,9 C 0,0 km/h (0 Bft)
06.11.2011 23:35 4,5 C 13,8 C 4,8 C 4,2 C 3,7 C 0,0 C 89 % 90 % 0 % 1017,6 hPa 0,0 l/m 0,0 km/h (0 Bft) W-SW 247 0 min 0,0 UV-I 2,8 C 3,7 C 0,0 km/h (0 Bft)
06.11.2011 23:40 4,5 C 13,8 C 4,8 C 4,2 C 3,6 C 0,0 C 89 % 90 % 0 % 1017,6 hPa 0,0 l/m 0,0 km/h (0 Bft) N 360 0 min 0,0 UV-I 2,8 C 3,6 C 0,0 km/h (0 Bft)
06.11.2011 23:45 4,4 C 13,8 C 4,7 C 4,2 C 3,8 C 0,0 C 90 % 91 % 0 % 1017,6 hPa 0,0 l/m 0,0 km/h (0 Bft) N 360 0 min 0,0 UV-I 2,9 C 3,8 C 0,0 km/h (0 Bft)
06.11.2011 23:50 4,3 C 13,8 C 4,7 C 4,2 C 3,9 C 0,0 C 90 % 91 % 0 % 1017,6 hPa 0,0 l/m 0,0 km/h (0 Bft) N 360 0 min 0,0 UV-I 2,8 C 3,9 C 0,0 km/h (0 Bft)
06.11.2011 23:55 4,4 C 13,8 C 4,5 C 4,3 C 4,0 C 0,0 C 90 % 90 % 0 % 1017,6 hPa 0,0 l/m 0,0 km/h (0 Bft) N 360 0 min 0,0 UV-I 2,9 C 4,0 C 0,0 km/h (0 Bft)
_ Min-Zeit 07:11 11:30 07:11 07:11 07:11 00:00 14:11 14:11 00:00 00:40 - 00:00 - - - 00:00 07:11 07:11 00:00
Minimum _ 0,8 C 12,4 C 1,6 C 0,5 C 0,0 C 0,0 C 68 % 67 % 0 % 1013,5 hPa - 0,0 km/h (0 Bft) - - - 0,0 UV-I -0,5 C 0,0 C 0,0 km/h (0 Bft)
_ Max-Zeit 14:25 19:30 14:30 14:00 14:00 14:00 09:35 10:11 13:35 23:00 00:00 14:20 - - 11:11 00:00 11:35 14:00 12:50
Maximum _ 14,9 C 14,0 C 16,9 C 18,9 C 18,9 C 4,1 C 94 % 94 % 100 % 1018,4 hPa 0,0 l/m 6,8 km/h
O-NO (2 Bft)
- - 11 min 0,0 UV-I 10,2 C 18,9 C 10,9 km/h
O-NO (2 Bft)
Durchschnitt _ 6,7 C 13,3 C 6,9 C 7,2 C 7,0 C 0,7 C 86 % 87 % 18 % 1015,8 hPa #0,0 l/m 1,0 km/h (0 Bft) O-NO - #1:55 h 0,0 UV-I 4,3 C 7,0 C 1,3 km/h (1 Bft)
2011 www.wetterstation-wechselburg.de